Skip Page Navigation
NASA JPL Caltech
NASA Logo - Jet Propulsion Laboratory + View the NASA Portal
+ Center for Near-Earth Object Studies
JPL Home Earth Solar System Stars & Galaxies Technology
JPL Solar System Dynamics
BODIES ORBITS EPHEMERIDES TOOLS PHYSICAL DATA DISCOVERY FAQ SITE MAP
JPL Small-Body Database Browser
Search: [ help ]  
138847 (2000 VE62)
Classification: Amor [NEO]          SPK-ID: 2138847
Ephemeris | Orbit Diagram | Orbital Elements | Mission Design | Physical Parameters | Discovery Circumstances | Close-Approach Data ]

[ hide orbit diagram ]

For accurate long-term ephemerides, please instead use our Horizons system.This orbit viewer was implemented using two-body methods, and hence should not be used for determining accurate long-term trajectories (over several years or decades) or planetary encounter circumstances.


[ revert to old Java-based viewer ]

Orbital Elements at Epoch 2459000.5 (2020-May-31.0) TDB
Reference: JPL 438 (heliocentric ecliptic J2000)
 Element Value Uncertainty (1-sigma)   Units 
e .2875800725000806 2.3493e-08  
a 1.618937219246358 6.3033e-09 au
q 1.153363136362411 3.9048e-08 au
i 22.17796123148412 4.126e-06 deg
node 207.1126824773942 5.7416e-06 deg
peri 16.29709422326995 1.2213e-05 deg
M .0682964266960089 5.0893e-06 deg
tp 2459000.357262226132
(2020-May-30.85726223)
1.0637e-05 TDB
period 752.3907337218756
2.06
4.3941e-06
1.203e-08
d
yr
n .4784747922388363 2.7944e-09 deg/d
Q 2.084511302130304 8.1159e-09 au
  Orbit Determination Parameters
   # obs. used (total)      2238  
   data-arc span      13701 days (37.51 yr)  
   first obs. used      1983-03-05  
   last obs. used      2020-09-07  
   planetary ephem.      DE431  
   SB-pert. ephem.      SB431-N16  
   condition code      0  
   norm. resid. RMS      .42572  
   source      ORB  
   producer      Otto Matic  
   solution date      2020-Sep-08 06:54:28  

Additional Information
 Earth MOID = .156797 au 
 Jupiter MOID = 2.8962 au 
 T_jup = 4.203 
[ show covariance matrix ]

Ephemeris | Orbit Diagram | Orbital Elements | Mission Design | Physical Parameters | Discovery Circumstances | Close-Approach Data ]

Physical Parameter Table
Parameter Symbol Value Units Sigma Reference Notes
absolute magnitude H 17.0   n/a MPO385607  
diameter diameter 0.965 km 0.151 urn:nasa:pds:neowise_diameters_albedos::2.0[neos] (http://adsabs.harvard.edu/abs/2011ApJ...743..156M)  
rotation period rot_per 7.600 h n/a LCDB (Rev. 2019-August); Warner et al., 2009 Published Reference List:
[Benishek, V. (2018) Minor Planet Bull. 45, 386-389.]
[Percy, S.C. (2018) Minor Planet Bull. 45, 313-315.]
[Warner, B.D. (2018) Minor Planet Bull. 45, 366-379.]
geometric albedo albedo 0.396   0.153 urn:nasa:pds:neowise_diameters_albedos::2.0[neos] (http://adsabs.harvard.edu/abs/2011ApJ...743..156M)  

138847 (2000 VE62)          Discovered 2000-Nov-03 by LINEAR at Socorro
Reference: 20061205/Numbers.arcLast Updated: 2006-12-13

[ hide close-approach data ]
Close-Approach Data   ...sorted by Date/Time (TDB)
Date/Time (TDB) Time Uncertainty
(days_HH:MM)
Body Nominal Distance (au) Minimum Distance (au) Maximum Distance (au) V-relative (km/s) V-infinity (km/s) JD (TDB) Time Uncertainty (minutes) Semi-major axis (km) Semi-minor axis (km) range-LOV angle (deg) N-sigma BP Orbit Ref. Reference Modified
1913-Apr-18 03:11 < 00:01 Earth 0.296019162931252 0.296009041855291 0.296029284009114 14.0346772029435 14.0340358456683 2419875.632784000 0.204668471399809 506.08955993041 11.2440669220383 4.27356977890744 272908.239337095 T 438 CATAB v2.0f-lin.ifort 2020-Sep-08 06:54:52 2020-Sep-08 06:55
1915-Apr-21 15:49 < 00:01 Earth 0.196430836439518 0.196423793892176 0.196437878991271 11.8216499251408 11.8205024436882 2420609.159164013 0.0686944134325134 354.233838136217 7.20678561496441 7.52791921184976 523674.78892412 T 438 CATAB v2.0f-lin.ifort 2020-Sep-08 06:54:52 2020-Sep-08 06:55
1948-Apr-19 06:28 < 00:01 Earth 0.204801549577218 0.204795940934793 0.204807158220981 12.7971215207603 12.7961048412378 2432660.769688099 0.135952799775592 280.90224139538 9.70580092309789 5.37047508349505 286196.263625641 T 438 CATAB v2.0f-lin.ifort 2020-Sep-08 06:54:52 2020-Sep-08 06:55
1950-Apr-21 12:58 < 00:01 Earth 0.284497144187646 0.28449018405548 0.284504104319893 12.1613517371803 12.1605816030913 2433393.040061772 0.045559746291359 347.161149837282 8.74507993466714 1.32525816533537 156758.458350072 T 438 CATAB v2.0f-lin.ifort 2020-Sep-08 06:54:52 2020-Sep-08 06:55
1981-Apr-16 12:29 < 00:01 Earth 0.426582457055006 0.42657865556739 0.426586258542694 16.1199815607727 16.1195940801007 2444711.020247695 0.0872987830659917 189.734925883792 13.2594659181504 2.4607324487527 344631.289627995 T 438 CATAB v2.0f-lin.ifort 2020-Sep-08 06:54:52 2020-Sep-08 06:55
1983-Apr-21 02:21 < 00:01 Earth 0.158358678638825 0.158358064105554 0.158359293172169 12.0838143921967 12.0824219041833 2445445.597665089 0.0577629118948135 31.1611948612157 8.52901981857927 -10.9018526245618 775720.483303633 T 438 CATAB v2.0f-lin.ifort 2020-Sep-08 06:54:52 2020-Sep-08 06:55
1985-Apr-20 12:45 < 00:01 Earth 0.377814286134772 0.37781107652982 0.377817495739766 12.747255511845 12.7467022551033 2446176.031078103 0.0779782996137743 160.183507023942 10.8241758773807 -2.36576215798734 383139.902624643 T 438 CATAB v2.0f-lin.ifort 2020-Sep-08 06:54:52 2020-Sep-08 06:55
2016-Apr-17 16:07 < 00:01 Earth 0.334403247737235 0.334402996194034 0.334403499280436 14.6582995521613 14.6577559685804 2457496.171766069 0.0293197282015603 12.8850776148056 11.454539306794 29.9822142540076 3511910.96142667 T 438 CATAB v2.0f-lin.ifort 2020-Sep-08 06:54:52 2020-Sep-08 06:55
2018-Apr-21 14:36 < 00:01 Earth 0.174231660226982 0.174231539264421 0.174231781189544 11.8061373973707 11.8048420051784 2458230.108332036 0.0249538195815395 8.25158635135407 6.00610011514475 -84.3564832970463 4082801.34592723 T 438 CATAB v2.0f-lin.ifort 2020-Sep-08 06:54:52 2020-Sep-08 06:55
2020-Apr-18 02:28 < 00:01 Earth 0.470194706686771 0.470194498370575 0.470194915002967 13.327765698202 13.3273405070686 2458957.603017009 0.0551699046762302 14.0125642143721 10.3841080174876 -88.4201412376453 4712399.68109263 T 438 CATAB v2.0f-lin.ifort 2020-Sep-08 06:54:52 2020-Sep-08 06:55
2051-Apr-19 21:42 < 00:01 Earth 0.237827913797294 0.23782526241297 0.23783056518178 13.2658025766528 13.2649580179812 2470281.404458644 0.0498605205222856 132.587190482467 10.2397152365389 4.3370545320062 340176.333912268 T 438 CATAB v2.0f-lin.ifort 2020-Sep-08 06:54:52 2020-Sep-08 06:55
2053-Apr-21 17:06 < 00:01 Earth 0.248373219869445 0.248370339013153 0.248376100725751 11.9468559296111 11.9459579421241 2471014.212813072 0.0311478535393393 143.668501303261 7.98427327799592 -0.805931125338439 254163.124636681 T 438 CATAB v2.0f-lin.ifort 2020-Sep-08 06:54:52 2020-Sep-08 06:55
2084-Apr-16 02:18 < 00:01 Earth 0.460597684921603 0.460591798063733 0.460603571779499 16.7731178908423 16.7727730003108 2482331.595652517 0.120797700503119 293.612273930849 13.6691991353572 1.19984839758862 224015.667077741 T 438 CATAB v2.0f-lin.ifort 2020-Sep-08 06:54:52 2020-Sep-08 06:55
2086-Apr-20 21:44 < 00:01 Earth 0.169206132472607 0.169203749797821 0.169208515147527 12.2982455302662 12.2969650416898 2483066.405789221 0.072175071581047 119.050137193186 8.57989954853096 3.65886254722617 255773.826144072 T 438 CATAB v2.0f-lin.ifort 2020-Sep-08 06:54:52 2020-Sep-08 06:55
2088-Apr-20 23:21 < 00:01 Earth 0.344369331872593 0.344363454315289 0.344375209430209 12.4594040475226 12.4587830334492 2483797.472601206 0.111059138771167 293.55030433852 9.93120672225552 -3.23048183922451 313273.941144428 T 438 CATAB v2.0f-lin.ifort 2020-Sep-08 06:54:52 2020-Sep-08 06:55
2119-Apr-19 05:48 < 00:01 Earth 0.367412845191879 0.367403916656041 0.367421773727842 15.2481295330356 15.2476539260536 2495116.741611355 0.178335385769892 445.339613001981 12.1016752518977 1.33265960115079 142634.903388142 T 438 CATAB v2.0f-lin.ifort 2020-Sep-08 06:54:52 2020-Sep-08 06:55
2121-Apr-22 12:15 < 00:01 Earth 0.161949927739576 0.161947543748771 0.161952311730528 11.8537261680289 11.8523381275359 2495851.010440314 0.0750240993791658 119.134794993977 6.97340124626904 3.72783857010145 320103.370195973 T 438 CATAB v2.0f-lin.ifort 2020-Sep-08 06:54:52 2020-Sep-08 06:55
2123-Apr-21 02:24 < 00:01 Earth 0.43429813303144 0.434288710143676 0.434307555922414 13.0248979625335 13.0244269223931 2496579.599708792 0.374768484784123 473.551653717408 12.4739290925272 -7.14801080410147 596013.536591421 T 438 CATAB v2.0f-lin.ifort 2020-Sep-08 06:54:52 2020-Sep-08 06:55
2154-Apr-20 10:55 < 00:01 Earth 0.272839902867891 0.272827053507627 0.272852752228388 13.8161750784121 13.8154682276149 2507901.954814105 0.256468639321302 640.872117707279 10.7847696910567 1.21991114736695 91664.7591264282 T 438 CATAB v2.0f-lin.ifort 2020-Sep-08 06:54:52 2020-Sep-08 06:55
2156-Apr-22 18:21 < 00:01 Earth 0.216582058089197 0.216571188705296 0.216592927473258 11.8038562622644 11.8028139804925 2508635.264389785 0.0273583467050481 542.093210001172 7.37931924145294 -1.01772673928701 95423.5452156764 T 438 CATAB v2.0f-lin.ifort 2020-Sep-08 06:54:52 2020-Sep-08 06:55
2189-Apr-21 14:26 < 00:01 Earth 0.189142401714337 0.189132145664258 0.189152657764396 12.636133753209 12.6350188724961 2520687.101292273 0.247392545896386 511.414175340909 9.46860604100861 -0.277396421333833 52021.5374341881 T 438 CATAB v2.0f-lin.ifort 2020-Sep-08 06:54:52 2020-Sep-08 06:55
2191-Apr-23 06:57 < 00:01 Earth 0.310456115028002 0.310440369601342 0.310471860457504 12.1898326066408 12.1891285186465 2521418.789322163 0.210593989399439 786.555101363739 9.10452086581057 -3.42858823791137 291319.82279536 T 438 CATAB v2.0f-lin.ifort 2020-Sep-08 06:54:52 2020-Sep-08 06:55
Ephemeris | Orbit Diagram | Orbital Elements | Mission Design | Physical Parameters | Discovery Circumstances | Close-Approach Data ]
ABOUT SSD CREDITS/AWARDS PRIVACY/COPYRIGHT GLOSSARY LINKS
FirstGov 2020-Sep-21 00:23 UT
(server date/time)  
NASA Home Page
Site Manager:   Ryan S. Park
Webmaster  Alan B. Chamberlin